Total_Precipitation_Accumulation
1.03 1.02 0.99 0.94 0.91 0.94 1.04 1.21 1.43 1.36 1.07 0.86 0.82 0.81 0.84 0.85 0.90 0.83 0.73 0.88 0.95 0.94 0.98 1.02 0.99 0.97 1.00 1.11 1.32 1.53 1.66 1.69 1.72 1.82 1.90 1.91 2.00 2.17
0.95 0.96 0.93 0.90 0.91 0.94 1.01 1.09 1.23 1.36 1.23 0.90 0.77 0.73 0.76 0.79 0.87 0.78 0.72 0.88 0.88 0.87 0.88 0.88 0.90 0.93 0.98 1.05 1.15 1.30 1.50 1.62 1.64 1.67 1.77 1.85 1.93 2.05
0.89 0.88 0.87 0.86 0.88 0.90 0.95 1.00 1.06 1.14 1.16 0.91 0.76 0.73 0.75 0.75 0.78 0.76 0.72 0.70 0.68 0.77 0.77 0.77 0.78 0.84 0.94 1.01 1.06 1.15 1.32 1.44 1.56 1.62 1.71 1.81 1.88 1.91
0.86 0.89 0.90 0.91 0.96 0.99 1.01 1.02 1.01 1.01 1.05 0.97 0.79 0.70 0.66 0.63 0.63 0.66 0.67 0.66 0.61 0.71 0.73 0.72 0.75 0.79 0.87 0.92 0.95 1.03 1.12 1.20 1.32 1.41 1.47 1.55 1.65 1.75
0.80 0.86 0.91 0.96 1.02 1.03 1.02 1.01 0.97 0.94 0.95 0.96 0.84 0.70 0.64 0.61 0.62 0.63 0.64 0.63 0.59 0.65 0.69 0.68 0.72 0.75 0.79 0.86 0.91 0.93 0.95 1.01 1.08 1.18 1.26 1.33 1.41 1.52
0.83 0.86 0.89 0.90 0.91 0.91 0.90 0.88 0.89 0.90 0.90 0.93 0.89 0.77 0.68 0.63 0.67 0.74 0.72 0.63 0.59 0.54 0.58 0.58 0.60 0.62 0.65 0.70 0.77 0.81 0.83 0.90 1.00 1.09 1.21 1.26 1.29 1.40
0.89 0.89 0.85 0.83 0.78 0.77 0.77 0.77 0.77 0.83 0.91 0.96 0.91 0.81 0.71 0.67 0.67 0.66 0.71 0.68 0.63 0.56 0.53 0.50 0.50 0.49 0.50 0.56 0.65 0.77 0.87 0.99 1.13 1.23 1.35 1.45 1.52 1.58
0.80 0.77 0.75 0.75 0.73 0.76 0.77 0.76 0.81 0.91 1.01 1.00 0.89 0.74 0.59 0.54 0.59 0.70 0.80 0.85 0.76 0.55 0.54 0.55 0.54 0.55 0.51 0.54 0.68 0.78 0.90 1.04 1.20 1.29 1.37 1.44 1.52 1.62
0.72 0.67 0.63 0.59 0.60 0.57 0.64 0.72 0.74 0.79 0.84 0.83 0.78 0.64 0.58 0.57 0.73 0.89 0.88 0.84 0.69 0.51 0.54 0.61 0.57 0.61 0.59 0.64 0.76 0.80 0.91 1.03 1.17 1.26 1.35 1.40 1.46 1.56
0.57 0.54 0.50 0.49 0.50 0.53 0.59 0.67 0.60 0.56 0.57 0.55 0.56 0.60 0.61 0.61 0.71 0.86 0.87 0.83 0.70 0.60 0.59 0.69 0.61 0.62 0.61 0.66 0.77 0.77 0.83 0.96 1.10 1.23 1.33 1.36 1.41 1.50
0.45 0.47 0.49 0.45 0.52 0.66 0.68 0.66 0.54 0.45 0.47 0.54 0.59 0.59 0.60 0.59 0.62 0.83 0.99 1.05 0.89 0.66 0.58 0.61 0.55 0.57 0.62 0.67 0.75 0.82 0.83 0.91 1.05 1.16 1.22 1.29 1.39 1.46
0.43 0.46 0.51 0.49 0.57 0.69 0.63 0.60 0.53 0.45 0.45 0.44 0.43 0.43 0.42 0.46 0.56 0.70 1.05 1.36 1.08 0.78 0.53 0.65 0.67 0.73 0.92 0.70 0.70 0.76 0.80 0.90 1.01 1.07 1.10 1.19 1.27 1.27
0.43 0.41 0.44 0.60 0.67 0.66 0.58 0.48 0.51 0.57 0.49 0.40 0.38 0.37 0.37 0.39 0.42 0.47 0.70 1.27 1.48 1.01 0.52 0.95 1.11 0.83 1.00 0.79 0.69 0.76 0.87 1.03 1.11 1.12 1.12 1.14 1.18 1.24
0.41 0.37 0.43 0.61 0.61 0.54 0.48 0.51 0.60 0.56 0.44 0.43 0.42 0.42 0.39 0.37 0.38 0.40 0.47 0.64 0.94 1.04 0.73 1.12 1.56 1.16 1.23 1.03 0.81 0.84 0.91 1.13 1.39 1.46 1.40 1.36 1.27 1.26
0.49 0.56 0.59 0.55 0.48 0.45 0.46 0.50 0.50 0.46 0.50 0.58 0.53 0.44 0.40 0.39 0.41 0.45 0.47 0.51 0.59 0.63 0.69 0.85 1.23 1.28 1.43 1.40 1.11 0.95 1.07 1.21 1.53 1.81 1.73 1.51 1.30 1.22
0.59 0.62 0.56 0.47 0.42 0.42 0.45 0.45 0.43 0.44 0.54 0.62 0.57 0.47 0.41 0.45 0.50 0.58 0.68 0.69 0.76 0.68 0.67 0.74 0.92 1.24 1.36 1.16 1.24 1.18 1.22 1.57 1.77 1.97 1.85 1.59 1.35 1.19
0.66 0.52 0.44 0.41 0.41 0.39 0.38 0.38 0.41 0.45 0.50 0.52 0.56 0.55 0.50 0.49 0.51 0.61 0.81 0.92 0.96 0.82 0.74 0.68 0.70 0.82 1.01 1.12 1.19 1.13 1.26 1.50 1.73 1.89 1.69 1.54 1.47 1.34
0.58 0.48 0.45 0.42 0.40 0.37 0.35 0.37 0.38 0.42 0.49 0.58 0.59 0.59 0.61 0.60 0.60 0.62 0.80 0.97 0.99 0.87 0.80 0.72 0.71 0.77 0.79 0.84 1.07 1.27 1.33 1.51 1.62 1.57 1.28 1.28 1.39 1.29
0.47 0.46 0.46 0.46 0.44 0.41 0.42 0.43 0.43 0.41 0.51 0.64 0.70 0.70 0.71 0.67 0.69 0.74 0.82 0.89 0.86 0.77 0.67 0.62 0.73 1.01 1.03 0.77 0.69 1.03 1.39 1.47 1.35 1.26 1.10 1.11 1.34 1.28
0.38 0.42 0.44 0.45 0.47 0.50 0.52 0.55 0.55 0.54 0.58 0.66 0.71 0.74 0.80 0.84 0.81 0.80 0.84 0.88 0.83 0.65 0.49 0.41 0.54 0.94 1.34 1.19 0.96 0.93 1.07 1.27 1.33 1.33 1.13 0.99 1.08 1.09
0.36 0.38 0.39 0.43 0.49 0.54 0.56 0.60 0.64 0.68 0.71 0.81 0.81 0.82 0.87 0.95 0.89 0.81 0.79 0.72 0.66 0.58 0.50 0.39 0.39 0.60 0.91 1.01 0.87 0.75 0.87 0.99 1.15 1.48 1.41 1.23 1.04 0.91
0.37 0.38 0.38 0.41 0.48 0.53 0.57 0.61 0.67 0.69 0.75 0.82 0.85 0.87 0.91 0.98 0.95 0.80 0.69 0.65 0.59 0.55 0.50 0.40 0.35 0.44 0.64 0.87 0.78 0.62 0.65 0.69 0.71 0.76 1.01 1.35 1.69 1.76
0.41 0.41 0.41 0.44 0.50 0.55 0.59 0.61 0.66 0.69 0.76 0.87 0.91 0.89 0.88 0.83 0.72 0.69 0.65 0.65 0.66 0.60 0.54 0.50 0.44 0.46 0.53 0.61 0.66 0.57 0.52 0.52 0.52 0.58 0.77 0.84 0.97 1.22